Orbital Elements at Epoch 2459200.5 (2020-Dec-17.0) TDB
Reference: JPL 11 (heliocentric ecliptic J2000)
Element | Value | Uncertainty (1-sigma) | Units |
e | .2334616311079259 | 5.1181e-08 | |
a | 2.554290836639902 | 1.5037e-08 | au |
q | 1.957961931593921 | 1.3368e-07 | au |
i | 3.750017039463338 | 5.0518e-06 | deg |
node | 98.32570279730497 | 8.7579e-05 | deg |
peri | 271.0971440842917 | 8.8715e-05 | deg |
M | 252.716662144096 | 1.9407e-05 | deg |
tp | 2459644.858734459555 (2022-Mar-06.35873446) | 8.3581e-05 | TDB |
period | 1491.090299784481 4.08 | 1.3167e-05 3.605e-08 | d yr |
n | .241434070124414 | 2.1319e-09 | deg/d |
Q | 3.150619741685882 | 1.8547e-08 | au |
|
| | Orbit Determination Parameters
Additional Information
|